AAL407A KFLL-TAPA

Flight info

Callsign AAL407A
Flight time 2h 40m
Altitude 39000
Route SNAPR2 SUMAC Y280 GABAR UG633 ANU
Aircraft B789/H-SDE1E2E3FGHIJ2J3J4J5M1RWXY/LB1D1

Departure

Time 2026-05-06 19:27
Airport Fort Lauderdale Hollywood International Airport (KFLL)

Arrival

Time 2026-05-06 22:07
Airport V. C. Bird International Airport (TAPA)
Time Latitude Longitude Altitude Speed Heading
2026-05-06 19:19 26.07427 -80.14041 78 ft 0 kts 227°
2026-05-06 19:21 26.07433 -80.14033 78 ft 2 kts 227°
2026-05-06 19:22 26.07446 -80.14018 78 ft 3 kts 227°
2026-05-06 19:22 26.07459 -80.14002 78 ft 3 kts 227°
2026-05-06 19:22 26.07473 -80.13986 78 ft 3 kts 226°
2026-05-06 19:22 26.07478 -80.13980 78 ft 0 kts 226°
2026-05-06 19:23 26.07476 -80.13982 78 ft 2 kts 226°
2026-05-06 19:23 26.07476 -80.14002 78 ft 4 kts 301°
2026-05-06 19:23 26.07498 -80.14060 78 ft 13 kts 280°
2026-05-06 19:23 26.07514 -80.14194 78 ft 20 kts 296°
2026-05-06 19:24 26.07556 -80.14355 78 ft 23 kts 271°
2026-05-06 19:24 26.07559 -80.14541 78 ft 25 kts 271°
2026-05-06 19:24 26.07561 -80.14735 78 ft 26 kts 270°
2026-05-06 19:24 26.07562 -80.14935 78 ft 26 kts 270°
2026-05-06 19:25 26.07562 -80.15139 78 ft 26 kts 270°
2026-05-06 19:25 26.07563 -80.15344 78 ft 27 kts 270°
2026-05-06 19:25 26.07566 -80.15552 78 ft 27 kts 272°
2026-05-06 19:25 26.07571 -80.15761 78 ft 27 kts 271°
2026-05-06 19:26 26.07573 -80.15970 78 ft 27 kts 271°
2026-05-06 19:26 26.07575 -80.16178 78 ft 27 kts 270°
2026-05-06 19:26 26.07612 -80.16297 78 ft 14 kts 341°
2026-05-06 19:26 26.07685 -80.16255 78 ft 14 kts 75°
2026-05-06 19:27 26.07690 -80.16023 78 ft 73 kts 90°
2026-05-06 19:27 26.07687 -80.15061 79 ft 170 kts 91°
2026-05-06 19:27 26.07669 -80.13634 790 ft 192 kts 90°
2026-05-06 19:27 26.07708 -80.12131 2053 ft 195 kts 87°
2026-05-06 19:28 26.07739 -80.10604 3036 ft 205 kts 86°
2026-05-06 19:28 26.07768 -80.08969 3929 ft 218 kts 88°
2026-05-06 19:28 26.07790 -80.07215 4703 ft 236 kts 89°
2026-05-06 19:28 26.07806 -80.05316 5439 ft 254 kts 90°
2026-05-06 19:29 26.07819 -80.03293 6239 ft 267 kts 90°
2026-05-06 19:29 26.07832 -80.01201 7136 ft 274 kts 90°
2026-05-06 19:29 26.07823 -79.99051 8030 ft 281 kts 91°
2026-05-06 19:29 26.07800 -79.96848 8903 ft 288 kts 91°
2026-05-06 19:30 26.07776 -79.94599 9751 ft 294 kts 91°
2026-05-06 19:30 26.07750 -79.92300 10529 ft 303 kts 91°
2026-05-06 19:30 26.07725 -79.89889 11056 ft 320 kts 90°
2026-05-06 19:30 26.07699 -79.87350 11550 ft 336 kts 90°
2026-05-06 19:31 26.07672 -79.84721 12005 ft 352 kts 90°
2026-05-06 19:31 26.07563 -79.81947 12495 ft 366 kts 96°
2026-05-06 19:31 26.06335 -79.76332 13731 ft 380 kts 104°
2026-05-06 19:32 26.05650 -79.73465 14402 ft 385 kts 104°
2026-05-06 19:32 26.04984 -79.70562 15080 ft 389 kts 103°
2026-05-06 19:32 26.04330 -79.67615 15770 ft 393 kts 103°
2026-05-06 19:32 26.03667 -79.64661 16460 ft 396 kts 103°
2026-05-06 19:33 26.02975 -79.61679 17109 ft 400 kts 103°
2026-05-06 19:33 26.02279 -79.58704 17738 ft 403 kts 103°
2026-05-06 19:33 26.01560 -79.55643 18357 ft 407 kts 104°
2026-05-06 19:33 26.00849 -79.52618 18954 ft 411 kts 104°
2026-05-06 19:34 26.00121 -79.49530 19557 ft 414 kts 104°
2026-05-06 19:34 25.99387 -79.46411 20186 ft 416 kts 103°
2026-05-06 19:34 25.98653 -79.43285 20799 ft 419 kts 103°
2026-05-06 19:34 25.97915 -79.40150 21374 ft 422 kts 103°
2026-05-06 19:35 25.97044 -79.37023 21904 ft 426 kts 108°
2026-05-06 19:35 25.95997 -79.33923 22430 ft 430 kts 110°
2026-05-06 19:35 25.94898 -79.30817 22963 ft 433 kts 111°
2026-05-06 19:35 25.93803 -79.27739 23522 ft 435 kts 110°
2026-05-06 19:36 25.92701 -79.24599 24081 ft 437 kts 110°
2026-05-06 19:36 25.91601 -79.21437 24592 ft 440 kts 110°
2026-05-06 19:36 25.90494 -79.18253 25058 ft 444 kts 110°
2026-05-06 19:36 25.89376 -79.15040 25516 ft 448 kts 110°
2026-05-06 19:37 25.88244 -79.11799 25983 ft 452 kts 110°
2026-05-06 19:37 25.87099 -79.08528 26489 ft 454 kts 110°
2026-05-06 19:37 25.85950 -79.05251 26998 ft 456 kts 110°
2026-05-06 19:37 25.85185 -79.03069 27311 ft 458 kts 110°
2026-05-06 19:38 25.83633 -78.98640 27925 ft 462 kts 110°
2026-05-06 19:38 25.82463 -78.95304 28362 ft 466 kts 110°
2026-05-06 19:38 25.81280 -78.91931 28775 ft 469 kts 110°
2026-05-06 19:38 25.80107 -78.88591 29215 ft 472 kts 111°
2026-05-06 19:39 25.78909 -78.85186 29674 ft 475 kts 111°
2026-05-06 19:39 25.77705 -78.81765 30125 ft 477 kts 111°
2026-05-06 19:39 25.76491 -78.78319 30545 ft 480 kts 111°
2026-05-06 19:39 25.75268 -78.74850 30932 ft 483 kts 111°
2026-05-06 19:40 25.73873 -78.71484 31277 ft 488 kts 118°
2026-05-06 19:40 25.72118 -78.68267 31714 ft 490 kts 122°
2026-05-06 19:40 25.70221 -78.65117 32219 ft 490 kts 124°
2026-05-06 19:40 25.68291 -78.62012 32743 ft 489 kts 124°
2026-05-06 19:41 25.66358 -78.58916 33268 ft 488 kts 124°
2026-05-06 19:41 25.64440 -78.55821 33813 ft 486 kts 123°
2026-05-06 19:41 25.62537 -78.52727 34323 ft 485 kts 123°
2026-05-06 19:41 25.60761 -78.49560 34813 ft 483 kts 116°
2026-05-06 19:42 25.59362 -78.46190 35358 ft 480 kts 112°
2026-05-06 19:42 25.58097 -78.42769 35873 ft 477 kts 110°
2026-05-06 19:42 25.56890 -78.39355 36349 ft 475 kts 109°
2026-05-06 19:42 25.55769 -78.35916 36813 ft 472 kts 107°
2026-05-06 19:43 25.54747 -78.32476 37254 ft 469 kts 105°
2026-05-06 19:43 25.53791 -78.29032 37659 ft 467 kts 104°
2026-05-06 19:43 25.52876 -78.25594 38054 ft 464 kts 104°
2026-05-06 19:43 25.51982 -78.22170 38425 ft 462 kts 103°
2026-05-06 19:44 25.51107 -78.18792 38766 ft 460 kts 103°
2026-05-06 19:44 25.50229 -78.15388 38986 ft 459 kts 103°
2026-05-06 19:44 25.48472 -78.08575 39087 ft 464 kts 103°
2026-05-06 19:45 25.46690 -78.01683 39100 ft 466 kts 103°
2026-05-06 19:45 25.44893 -77.94759 39106 ft 467 kts 104°
2026-05-06 19:46 25.43105 -77.87887 39101 ft 467 kts 104°
2026-05-06 19:46 25.41302 -77.80960 39106 ft 467 kts 104°
2026-05-06 19:47 25.39499 -77.74050 39110 ft 468 kts 104°
2026-05-06 19:47 25.37692 -77.67137 39099 ft 468 kts 104°
2026-05-06 19:48 25.35887 -77.60247 39112 ft 469 kts 104°
2026-05-06 19:48 25.34070 -77.53329 39106 ft 469 kts 104°
2026-05-06 19:49 25.32247 -77.46394 39105 ft 469 kts 105°
2026-05-06 19:49 25.30420 -77.39464 39117 ft 470 kts 105°
2026-05-06 19:50 25.28068 -77.32715 39118 ft 472 kts 115°
2026-05-06 19:50 25.24989 -77.26355 39107 ft 473 kts 117°
2026-05-06 19:51 25.21803 -77.19997 39107 ft 473 kts 117°
2026-05-06 19:51 25.18632 -77.13637 39116 ft 473 kts 117°
2026-05-06 19:52 25.15461 -77.07264 39103 ft 473 kts 118°
2026-05-06 19:52 25.12283 -77.00884 39112 ft 474 kts 118°
2026-05-06 19:53 25.09113 -76.94518 39111 ft 473 kts 118°
2026-05-06 19:53 25.05929 -76.88139 39103 ft 474 kts 118°
2026-05-06 19:54 25.02761 -76.81805 39115 ft 474 kts 118°
2026-05-06 19:54 24.99568 -76.75428 39104 ft 474 kts 118°
2026-05-06 19:55 24.96915 -76.70135 39103 ft 474 kts 118°
2026-05-06 19:55 24.93202 -76.62736 39112 ft 474 kts 118°
2026-05-06 19:56 24.90542 -76.57441 39102 ft 474 kts 118°
2026-05-06 19:56 24.87344 -76.51085 39107 ft 474 kts 118°
2026-05-06 19:57 24.84144 -76.44734 39112 ft 474 kts 118°
2026-05-06 19:57 24.80943 -76.38392 39100 ft 474 kts 118°
2026-05-06 19:58 24.77739 -76.32051 39112 ft 475 kts 119°
2026-05-06 19:58 24.74545 -76.25736 39108 ft 474 kts 119°
2026-05-06 19:59 24.71327 -76.19386 39103 ft 474 kts 119°
2026-05-06 19:59 24.68114 -76.13051 39115 ft 474 kts 119°
2026-05-06 20:00 24.64892 -76.06710 39103 ft 474 kts 119°
2026-05-06 20:00 24.61690 -76.00415 39108 ft 474 kts 119°
2026-05-06 20:01 24.58465 -75.94082 39113 ft 474 kts 119°
2026-05-06 20:01 24.55243 -75.87764 39102 ft 474 kts 119°
2026-05-06 20:02 24.52012 -75.81440 39115 ft 474 kts 119°
2026-05-06 20:02 24.48806 -75.75170 39111 ft 474 kts 119°
2026-05-06 20:03 24.45577 -75.68864 39104 ft 474 kts 119°
2026-05-06 20:03 24.42345 -75.62559 39115 ft 474 kts 119°
2026-05-06 20:04 24.39108 -75.56257 39109 ft 474 kts 119°
2026-05-06 20:04 24.35869 -75.49959 39107 ft 474 kts 119°
2026-05-06 20:05 24.32623 -75.43654 39117 ft 474 kts 119°
2026-05-06 20:05 24.29378 -75.37357 39104 ft 475 kts 119°
2026-05-06 20:06 24.26144 -75.31084 39113 ft 475 kts 119°
2026-05-06 20:06 24.22890 -75.24783 39114 ft 475 kts 119°
2026-05-06 20:07 24.19633 -75.18488 39106 ft 475 kts 119°
2026-05-06 20:07 24.16368 -75.12186 39120 ft 475 kts 119°
2026-05-06 20:08 24.13104 -75.05895 39114 ft 475 kts 119°
2026-05-06 20:08 24.09857 -74.99645 39113 ft 476 kts 120°
2026-05-06 20:09 24.06573 -74.93338 39128 ft 476 kts 120°
2026-05-06 20:09 24.03291 -74.87046 39118 ft 476 kts 120°
2026-05-06 20:10 24.00011 -74.80758 39129 ft 476 kts 120°
2026-05-06 20:10 23.96727 -74.74466 39129 ft 476 kts 120°
2026-05-06 20:11 23.93463 -74.68215 39121 ft 476 kts 120°
2026-05-06 20:11 23.90177 -74.61931 39136 ft 476 kts 120°
2026-05-06 20:12 23.86880 -74.55641 39125 ft 476 kts 120°
2026-05-06 20:12 23.83588 -74.49369 39130 ft 476 kts 120°
2026-05-06 20:13 23.80288 -74.43094 39136 ft 477 kts 120°
2026-05-06 20:13 23.76996 -74.36848 39123 ft 477 kts 120°
2026-05-06 20:14 23.73689 -74.30575 39133 ft 477 kts 120°
2026-05-06 20:14 23.70379 -74.24302 39128 ft 477 kts 120°
2026-05-06 20:15 23.67065 -74.18018 39126 ft 477 kts 120°
2026-05-06 20:15 23.63753 -74.11750 39135 ft 477 kts 120°
2026-05-06 20:16 23.60434 -74.05487 39121 ft 477 kts 120°
2026-05-06 20:16 23.57130 -73.99258 39127 ft 477 kts 120°
2026-05-06 20:17 23.53807 -73.93000 39128 ft 477 kts 120°
2026-05-06 20:17 23.50475 -73.86734 39116 ft 477 kts 120°
2026-05-06 20:18 23.47152 -73.80490 39128 ft 477 kts 120°
2026-05-06 20:18 23.43813 -73.74225 39118 ft 478 kts 120°
2026-05-06 20:19 23.40473 -73.67968 39114 ft 477 kts 120°
2026-05-06 20:19 23.37150 -73.61753 39124 ft 478 kts 120°
2026-05-06 20:20 23.33807 -73.55505 39110 ft 478 kts 120°
2026-05-06 20:20 23.30464 -73.49262 39114 ft 478 kts 121°
2026-05-06 20:21 23.27116 -73.43013 39116 ft 478 kts 121°
2026-05-06 20:21 23.23758 -73.36759 39104 ft 478 kts 121°
2026-05-06 20:22 23.20403 -73.30520 39109 ft 478 kts 121°
2026-05-06 20:22 23.17059 -73.24309 39111 ft 478 kts 121°
2026-05-06 20:23 23.13695 -73.18071 39099 ft 478 kts 121°
2026-05-06 20:23 23.10324 -73.11827 39109 ft 479 kts 121°
2026-05-06 20:24 23.06949 -73.05580 39100 ft 479 kts 121°
2026-05-06 20:24 23.03577 -72.99347 39096 ft 479 kts 121°
2026-05-06 20:25 23.00202 -72.93116 39106 ft 479 kts 121°
2026-05-06 20:25 22.96840 -72.86918 39092 ft 479 kts 121°
2026-05-06 20:26 22.93453 -72.80680 39097 ft 479 kts 121°
2026-05-06 20:26 22.90062 -72.74443 39098 ft 479 kts 121°
2026-05-06 20:27 22.86672 -72.68217 39086 ft 479 kts 121°
2026-05-06 20:27 22.83297 -72.62024 39098 ft 480 kts 122°
2026-05-06 20:28 22.79894 -72.55789 39089 ft 480 kts 122°
2026-05-06 20:28 22.76489 -72.49557 39086 ft 480 kts 122°
2026-05-06 20:29 22.73101 -72.43363 39096 ft 480 kts 122°
2026-05-06 20:29 22.69692 -72.37140 39083 ft 480 kts 122°
2026-05-06 20:30 22.64563 -72.27790 39095 ft 481 kts 122°
2026-05-06 20:31 22.61145 -72.21567 39081 ft 481 kts 122°
2026-05-06 20:31 22.57724 -72.15347 39075 ft 481 kts 122°
2026-05-06 20:32 22.54318 -72.09162 39087 ft 481 kts 122°
2026-05-06 20:32 22.50890 -72.02944 39075 ft 481 kts 122°
2026-05-06 20:33 22.47455 -71.96720 39079 ft 482 kts 122°
2026-05-06 20:33 22.44014 -71.90494 39082 ft 482 kts 122°
2026-05-06 20:34 22.40593 -71.84312 39070 ft 481 kts 122°
2026-05-06 20:34 22.37154 -71.78104 39082 ft 482 kts 122°
2026-05-06 20:35 22.33712 -71.71897 39075 ft 482 kts 122°
2026-05-06 20:35 22.30262 -71.65685 39070 ft 481 kts 122°
2026-05-06 20:36 22.26810 -71.59474 39080 ft 482 kts 122°
2026-05-06 20:36 22.23380 -71.53308 39068 ft 481 kts 122°
2026-05-06 20:37 22.19931 -71.47119 39070 ft 481 kts 122°
2026-05-06 20:37 22.16479 -71.40932 39074 ft 481 kts 122°
2026-05-06 20:38 22.13020 -71.34740 39060 ft 481 kts 122°
2026-05-06 20:38 22.09567 -71.28565 39071 ft 481 kts 122°
2026-05-06 20:39 22.06129 -71.22424 39064 ft 481 kts 122°
2026-05-06 20:39 22.02673 -71.16257 39058 ft 480 kts 122°
2026-05-06 20:40 21.99210 -71.10083 39066 ft 481 kts 123°
2026-05-06 20:40 21.95712 -71.03861 39053 ft 486 kts 123°
2026-05-06 20:41 21.92207 -70.97630 39055 ft 485 kts 123°
2026-05-06 20:41 21.88719 -70.91436 39062 ft 485 kts 123°
2026-05-06 20:42 21.85218 -70.85226 39049 ft 485 kts 123°
2026-05-06 20:42 21.81733 -70.79050 39061 ft 485 kts 123°
2026-05-06 20:43 21.78234 -70.72853 39057 ft 484 kts 123°
2026-05-06 20:43 21.74729 -70.66654 39054 ft 484 kts 123°
2026-05-06 20:44 21.71223 -70.60461 39066 ft 484 kts 123°
2026-05-06 20:44 21.67722 -70.54286 39054 ft 483 kts 123°
2026-05-06 20:45 21.64221 -70.48120 39057 ft 483 kts 123°
2026-05-06 20:45 21.60736 -70.41993 39063 ft 483 kts 123°
2026-05-06 20:46 21.57817 -70.36864 39052 ft 483 kts 123°
2026-05-06 20:46 21.54309 -70.30704 39060 ft 483 kts 123°
2026-05-06 20:47 21.50798 -70.24545 39061 ft 483 kts 123°
2026-05-06 20:47 21.47289 -70.18397 39052 ft 483 kts 123°
2026-05-06 20:48 21.43772 -70.12242 39065 ft 483 kts 123°
2026-05-06 20:48 21.40267 -70.06113 39057 ft 484 kts 123°
2026-05-06 20:49 21.36745 -69.99957 39059 ft 484 kts 123°
2026-05-06 20:49 21.33217 -69.93801 39066 ft 483 kts 123°
2026-05-06 20:50 21.29684 -69.87646 39055 ft 484 kts 123°
2026-05-06 20:50 21.26172 -69.81534 39066 ft 485 kts 123°
2026-05-06 20:51 21.22621 -69.75365 39064 ft 486 kts 123°
2026-05-06 20:51 21.19066 -69.69192 39060 ft 486 kts 123°
2026-05-06 20:52 21.15524 -69.63048 39077 ft 487 kts 123°
2026-05-06 20:52 21.11960 -69.56873 39082 ft 488 kts 123°
2026-05-06 20:53 21.08390 -69.50695 39071 ft 488 kts 123°
2026-05-06 20:53 21.04811 -69.44505 39085 ft 489 kts 123°
2026-05-06 20:54 21.01223 -69.38307 39080 ft 489 kts 123°
2026-05-06 20:54 20.97655 -69.32152 39078 ft 489 kts 123°
2026-05-06 20:55 20.94055 -69.25951 39080 ft 490 kts 123°
2026-05-06 20:55 20.90454 -69.19760 39059 ft 490 kts 123°
2026-05-06 20:56 20.86841 -69.13552 39057 ft 490 kts 123°
2026-05-06 20:56 20.83238 -69.07365 39068 ft 490 kts 123°
2026-05-06 20:57 20.79649 -69.01209 39055 ft 490 kts 123°
2026-05-06 20:57 20.76043 -68.95029 39063 ft 490 kts 124°
2026-05-06 20:58 20.72432 -68.88848 39065 ft 490 kts 124°
2026-05-06 20:58 20.68831 -68.82691 39055 ft 490 kts 124°
2026-05-06 20:59 20.65212 -68.76511 39068 ft 490 kts 124°
2026-05-06 20:59 20.61595 -68.70341 39061 ft 490 kts 124°
2026-05-06 21:00 20.57974 -68.64169 39060 ft 490 kts 124°
2026-05-06 21:00 20.54356 -68.58011 39070 ft 490 kts 124°
2026-05-06 21:01 20.50735 -68.51849 39058 ft 489 kts 124°
2026-05-06 21:01 20.47143 -68.45741 39067 ft 489 kts 124°
2026-05-06 21:02 20.43387 -68.39705 39068 ft 487 kts 129°
2026-05-06 21:02 20.39169 -68.34043 39062 ft 486 kts 131°
2026-05-06 21:03 20.34884 -68.28522 39082 ft 486 kts 131°
2026-05-06 21:03 20.30566 -68.22971 39099 ft 486 kts 131°
2026-05-06 21:04 20.26247 -68.17409 39102 ft 485 kts 131°
2026-05-06 21:04 20.21945 -68.11853 39096 ft 486 kts 131°
2026-05-06 21:05 20.17667 -68.06337 39107 ft 485 kts 131°
2026-05-06 21:05 20.13359 -68.00794 39096 ft 485 kts 131°
2026-05-06 21:06 20.09047 -67.95254 39103 ft 485 kts 131°
2026-05-06 21:06 20.04759 -67.89751 39108 ft 485 kts 131°
2026-05-06 21:07 20.00455 -67.84232 39097 ft 485 kts 131°
2026-05-06 21:07 19.96140 -67.78704 39110 ft 486 kts 131°
2026-05-06 21:08 19.91812 -67.73164 39105 ft 486 kts 131°
2026-05-06 21:08 19.87481 -67.67632 39103 ft 487 kts 131°
2026-05-06 21:09 19.83150 -67.62103 39115 ft 488 kts 131°
2026-05-06 21:09 19.78799 -67.56550 39104 ft 489 kts 131°
2026-05-06 21:10 19.74445 -67.50997 39112 ft 489 kts 131°
2026-05-06 21:10 19.70101 -67.45461 39117 ft 491 kts 131°
2026-05-06 21:11 19.65725 -67.39889 39106 ft 492 kts 132°
2026-05-06 21:11 19.61331 -67.34304 39120 ft 493 kts 132°
2026-05-06 21:12 19.56931 -67.28715 39116 ft 494 kts 132°
2026-05-06 21:12 19.52520 -67.23118 39113 ft 495 kts 132°
2026-05-06 21:13 19.48122 -67.17541 39126 ft 495 kts 132°
2026-05-06 21:13 19.43690 -67.11927 39116 ft 496 kts 132°
2026-05-06 21:14 19.39247 -67.06304 39125 ft 497 kts 132°
2026-05-06 21:14 19.34807 -67.00686 39126 ft 498 kts 132°
2026-05-06 21:15 19.30373 -66.95083 39119 ft 498 kts 132°
2026-05-06 21:15 19.25927 -66.89477 39126 ft 498 kts 132°
2026-05-06 21:16 19.21464 -66.83851 39119 ft 498 kts 132°
2026-05-06 21:16 19.17001 -66.78227 39118 ft 499 kts 132°
2026-05-06 21:17 19.12530 -66.72604 39126 ft 499 kts 132°
2026-05-06 21:17 19.08085 -66.67016 39113 ft 499 kts 132°
2026-05-06 21:18 19.03597 -66.61373 39122 ft 499 kts 132°
2026-05-06 21:18 18.99129 -66.55767 39115 ft 499 kts 132°
2026-05-06 21:19 18.94925 -66.49971 39114 ft 501 kts 125°
2026-05-06 21:19 18.91152 -66.43775 39117 ft 502 kts 123°
2026-05-06 21:20 18.87662 -66.37376 39101 ft 502 kts 120°
2026-05-06 21:20 18.84367 -66.30856 39103 ft 502 kts 119°
2026-05-06 21:21 18.81140 -66.24350 39084 ft 502 kts 118°
2026-05-06 21:21 18.77895 -66.17812 39084 ft 502 kts 119°
2026-05-06 21:22 18.74661 -66.11310 39094 ft 502 kts 119°
2026-05-06 21:22 18.71416 -66.04785 39085 ft 501 kts 118°
2026-05-06 21:23 18.68171 -65.98269 39092 ft 501 kts 118°
2026-05-06 21:23 18.64925 -65.91767 39100 ft 501 kts 118°
2026-05-06 21:24 18.61674 -65.85259 39088 ft 501 kts 118°
2026-05-06 21:24 18.58441 -65.78791 39099 ft 501 kts 118°
2026-05-06 21:25 18.55189 -65.72288 39102 ft 501 kts 118°
2026-05-06 21:25 18.51937 -65.65792 39098 ft 501 kts 119°
2026-05-06 21:26 18.48673 -65.59291 39112 ft 501 kts 119°
2026-05-06 21:26 18.45414 -65.52803 39109 ft 501 kts 119°
2026-05-06 21:27 18.42170 -65.46349 39102 ft 501 kts 119°
2026-05-06 21:27 18.38903 -65.39851 39113 ft 501 kts 118°
2026-05-06 21:28 18.35639 -65.33362 39100 ft 501 kts 118°
2026-05-06 21:28 18.32392 -65.26916 39097 ft 501 kts 118°
2026-05-06 21:29 18.29120 -65.20436 39095 ft 501 kts 119°
2026-05-06 21:29 18.25830 -65.13933 39090 ft 501 kts 119°
2026-05-06 21:30 18.22579 -65.07506 39095 ft 501 kts 118°
2026-05-06 21:30 18.19301 -65.01023 39089 ft 501 kts 118°
2026-05-06 21:31 18.16018 -64.94545 39089 ft 501 kts 118°
2026-05-06 21:31 18.12731 -64.88066 39103 ft 502 kts 118°
2026-05-06 21:32 18.09451 -64.81610 39097 ft 503 kts 118°
2026-05-06 21:32 18.04509 -64.71888 39107 ft 503 kts 118°
2026-05-06 21:33 18.01208 -64.65400 39103 ft 503 kts 118°
2026-05-06 21:33 17.98466 -64.60019 39095 ft 504 kts 118°
2026-05-06 21:34 17.95148 -64.53519 39108 ft 504 kts 118°
2026-05-06 21:34 17.91832 -64.47024 39100 ft 504 kts 118°
2026-05-06 21:35 17.88515 -64.40536 39102 ft 504 kts 118°
2026-05-06 21:35 17.85195 -64.34048 39112 ft 504 kts 119°
2026-05-06 21:36 17.81888 -64.27597 39064 ft 504 kts 118°
2026-05-06 21:36 17.80228 -64.24358 38545 ft 505 kts 118°
2026-05-06 21:36 17.78567 -64.21119 37947 ft 504 kts 119°
2026-05-06 21:37 17.76903 -64.17875 37315 ft 503 kts 119°
2026-05-06 21:37 17.75246 -64.14647 36681 ft 501 kts 119°
2026-05-06 21:37 17.73600 -64.11440 36046 ft 499 kts 119°
2026-05-06 21:37 17.71953 -64.08234 35405 ft 497 kts 119°
2026-05-06 21:38 17.70314 -64.05046 34764 ft 495 kts 119°
2026-05-06 21:38 17.68683 -64.01874 34124 ft 493 kts 119°
2026-05-06 21:38 17.67055 -63.98712 33480 ft 490 kts 119°
2026-05-06 21:38 17.65440 -63.95576 32842 ft 488 kts 119°
2026-05-06 21:39 17.63850 -63.92486 32240 ft 485 kts 119°
2026-05-06 21:39 17.62229 -63.89343 31624 ft 484 kts 118°
2026-05-06 21:39 17.60647 -63.86277 31020 ft 486 kts 118°
2026-05-06 21:39 17.59026 -63.83137 30396 ft 492 kts 118°
2026-05-06 21:40 17.57398 -63.79985 29753 ft 489 kts 118°
2026-05-06 21:40 17.55785 -63.76861 29116 ft 484 kts 118°
2026-05-06 21:40 17.54193 -63.73774 28504 ft 478 kts 118°
2026-05-06 21:40 17.52829 -63.70620 27901 ft 471 kts 111°
2026-05-06 21:41 17.51703 -63.67415 27256 ft 466 kts 109°
2026-05-06 21:41 17.50657 -63.64251 26649 ft 461 kts 108°
2026-05-06 21:41 17.49651 -63.61075 26085 ft 455 kts 107°
2026-05-06 21:41 17.48743 -63.57922 25526 ft 449 kts 105°
2026-05-06 21:42 17.47924 -63.54779 24966 ft 444 kts 104°
2026-05-06 21:42 17.47166 -63.51661 24408 ft 439 kts 103°
2026-05-06 21:42 17.46443 -63.48565 23850 ft 434 kts 103°
2026-05-06 21:42 17.45742 -63.45511 23298 ft 430 kts 103°
2026-05-06 21:43 17.45052 -63.42481 22752 ft 425 kts 103°
2026-05-06 21:43 17.44364 -63.39476 22212 ft 421 kts 103°
2026-05-06 21:43 17.43691 -63.36545 21684 ft 417 kts 103°
2026-05-06 21:43 17.43017 -63.33603 21154 ft 414 kts 103°
2026-05-06 21:44 17.42343 -63.30648 20620 ft 410 kts 102°
2026-05-06 21:44 17.41691 -63.27789 20102 ft 407 kts 102°
2026-05-06 21:44 17.41038 -63.24921 19584 ft 404 kts 102°
2026-05-06 21:44 17.40386 -63.22065 19066 ft 400 kts 102°
2026-05-06 21:45 17.39743 -63.19243 18565 ft 397 kts 102°
2026-05-06 21:45 17.39102 -63.16446 18060 ft 393 kts 102°
2026-05-06 21:45 17.38467 -63.13671 17556 ft 390 kts 102°
2026-05-06 21:45 17.37836 -63.10917 17054 ft 386 kts 102°
2026-05-06 21:46 17.37219 -63.08224 16569 ft 382 kts 102°
2026-05-06 21:46 17.36601 -63.05532 16085 ft 379 kts 102°
2026-05-06 21:46 17.35989 -63.02867 15607 ft 375 kts 102°
2026-05-06 21:46 17.35385 -63.00219 15033 ft 374 kts 102°
2026-05-06 21:47 17.34786 -62.97582 14533 ft 368 kts 102°
2026-05-06 21:47 17.34206 -62.95030 14169 ft 350 kts 103°
2026-05-06 21:47 17.33659 -62.92625 13942 ft 329 kts 103°
2026-05-06 21:47 17.33137 -62.90326 13819 ft 321 kts 103°
2026-05-06 21:48 17.32626 -62.88078 13643 ft 322 kts 103°
2026-05-06 21:48 17.32107 -62.85791 13479 ft 324 kts 103°
2026-05-06 21:48 17.31587 -62.83492 13320 ft 327 kts 103°
2026-05-06 21:48 17.31061 -62.81179 13160 ft 323 kts 103°
2026-05-06 21:49 17.30547 -62.78924 13004 ft 313 kts 103°
2026-05-06 21:49 17.30050 -62.76744 12906 ft 302 kts 103°
2026-05-06 21:49 17.29559 -62.74640 12823 ft 293 kts 104°
2026-05-06 21:49 17.28979 -62.72596 12744 ft 294 kts 107°
2026-05-06 21:50 17.28365 -62.70527 12606 ft 300 kts 107°
2026-05-06 21:50 17.27749 -62.68458 12403 ft 296 kts 107°
2026-05-06 21:50 17.27141 -62.66417 12169 ft 292 kts 107°
2026-05-06 21:50 17.26542 -62.64406 11921 ft 287 kts 107°
2026-05-06 21:51 17.25952 -62.62421 11666 ft 284 kts 107°
2026-05-06 21:51 17.25373 -62.60480 11403 ft 280 kts 107°
2026-05-06 21:51 17.24803 -62.58571 11135 ft 271 kts 107°
2026-05-06 21:51 17.24250 -62.56720 10886 ft 262 kts 107°
2026-05-06 21:52 17.23713 -62.54916 10637 ft 255 kts 107°
2026-05-06 21:52 17.23195 -62.53181 10387 ft 249 kts 107°
2026-05-06 21:52 17.22685 -62.51472 10165 ft 244 kts 107°
2026-05-06 21:52 17.22185 -62.49798 9957 ft 238 kts 107°
2026-05-06 21:53 17.21693 -62.48152 9698 ft 236 kts 107°
2026-05-06 21:53 17.21209 -62.46531 9462 ft 228 kts 107°
2026-05-06 21:53 17.20750 -62.44996 9251 ft 216 kts 107°
2026-05-06 21:53 17.20307 -62.43514 9009 ft 211 kts 107°
2026-05-06 21:54 17.19870 -62.42053 8817 ft 209 kts 107°
2026-05-06 21:54 17.19438 -62.40608 8648 ft 207 kts 107°
2026-05-06 21:54 17.19008 -62.39172 8469 ft 206 kts 107°
2026-05-06 21:54 17.18581 -62.37744 8279 ft 205 kts 107°
2026-05-06 21:55 17.18155 -62.36322 8073 ft 204 kts 107°
2026-05-06 21:55 17.17735 -62.34921 7850 ft 203 kts 107°
2026-05-06 21:55 17.17314 -62.33515 7637 ft 202 kts 107°
2026-05-06 21:55 17.16894 -62.32116 7464 ft 201 kts 107°
2026-05-06 21:56 17.16476 -62.30720 7299 ft 200 kts 107°
2026-05-06 21:56 17.16060 -62.29332 7112 ft 200 kts 107°
2026-05-06 21:56 17.15645 -62.27949 6901 ft 199 kts 107°
2026-05-06 21:56 17.15231 -62.26568 6694 ft 198 kts 107°
2026-05-06 21:57 17.14824 -62.25213 6511 ft 197 kts 107°
2026-05-06 21:57 17.14416 -62.23850 6342 ft 196 kts 107°
2026-05-06 21:57 17.14008 -62.22491 6169 ft 195 kts 107°
2026-05-06 21:57 17.13602 -62.21138 5973 ft 195 kts 107°
2026-05-06 21:58 17.13197 -62.19792 5764 ft 194 kts 107°
2026-05-06 21:58 17.12793 -62.18450 5570 ft 193 kts 107°
2026-05-06 21:58 17.12390 -62.17110 5404 ft 192 kts 107°
2026-05-06 21:58 17.11989 -62.15778 5244 ft 191 kts 107°
2026-05-06 21:59 17.11596 -62.14470 5058 ft 191 kts 107°
2026-05-06 21:59 17.11196 -62.13140 4849 ft 190 kts 107°
2026-05-06 21:59 17.10798 -62.11819 4652 ft 189 kts 107°
2026-05-06 21:59 17.10410 -62.10525 4490 ft 188 kts 107°
2026-05-06 22:00 17.10013 -62.09207 4336 ft 188 kts 107°
2026-05-06 22:00 17.09625 -62.07919 4157 ft 187 kts 107°
2026-05-06 22:00 17.09234 -62.06623 3951 ft 187 kts 107°
2026-05-06 22:00 17.08845 -62.05334 3753 ft 185 kts 107°
2026-05-06 22:01 17.08467 -62.04080 3603 ft 176 kts 107°
2026-05-06 22:01 17.08105 -62.02879 3440 ft 169 kts 106°
2026-05-06 22:01 17.07761 -62.01739 3299 ft 161 kts 106°
2026-05-06 22:01 17.07428 -62.00634 3152 ft 156 kts 106°
2026-05-06 22:02 17.07105 -61.99560 2990 ft 153 kts 106°
2026-05-06 22:02 17.06791 -61.98519 2823 ft 151 kts 106°
2026-05-06 22:02 17.06477 -61.97476 2650 ft 150 kts 106°
2026-05-06 22:02 17.06129 -61.96453 2483 ft 148 kts 109°
2026-05-06 22:03 17.05836 -61.95434 2326 ft 146 kts 102°
2026-05-06 22:03 17.05747 -61.94381 2154 ft 145 kts 91°
2026-05-06 22:03 17.05877 -61.93346 2039 ft 140 kts 79°
2026-05-06 22:03 17.06171 -61.92374 2030 ft 141 kts 72°
2026-05-06 22:04 17.06568 -61.91436 2020 ft 141 kts 67°
2026-05-06 22:04 17.07023 -61.90533 2013 ft 142 kts 64°
2026-05-06 22:04 17.07541 -61.89643 1993 ft 144 kts 60°
2026-05-06 22:04 17.08101 -61.88778 1947 ft 145 kts 59°
2026-05-06 22:05 17.08651 -61.87890 1818 ft 145 kts 61°
2026-05-06 22:05 17.09154 -61.86969 1626 ft 146 kts 63°
2026-05-06 22:05 17.09678 -61.86055 1421 ft 147 kts 60°
2026-05-06 22:05 17.10227 -61.85159 1226 ft 147 kts 59°
2026-05-06 22:06 17.10751 -61.84238 1028 ft 147 kts 61°
2026-05-06 22:06 17.11289 -61.83325 827 ft 147 kts 60°
2026-05-06 22:06 17.11817 -61.82424 631 ft 147 kts 60°
2026-05-06 22:06 17.12369 -61.81528 438 ft 146 kts 58°
2026-05-06 22:07 17.12895 -61.80608 193 ft 146 kts 59°
2026-05-06 22:07 17.13419 -61.79716 74 ft 134 kts 60°
2026-05-06 22:07 17.13742 -61.79153 73 ft 51 kts 59°
2026-05-06 22:07 17.13920 -61.78844 73 ft 49 kts 57°
2026-05-06 22:08 17.14054 -61.78665 73 ft 16 kts
2026-05-06 22:08 17.14102 -61.78756 73 ft 23 kts 274°
2026-05-06 22:08 17.14085 -61.78888 73 ft 18 kts 253°
2026-05-06 22:08 17.14125 -61.78977 73 ft 0 kts 326°